TimeCDT,TemperatureF,Dew PointF,Humidity,Sea Level PressureIn,VisibilityMPH,Wind Direction,Wind SpeedMPH,Gust SpeedMPH,PrecipitationIn,Events,Conditions,WindDirDegrees,DateUTC
12:53 AM,79.0,70.0,74,29.88,10.0,Variable,5.8,-,N/A,,Clear,0,2013-05-19 05:53:00
1:53 AM,77.0,70.0,79,29.87,10.0,SSW,8.1,19.6,N/A,,Clear,210,2013-05-19 06:53:00
2:53 AM,75.9,69.1,79,29.87,10.0,SSW,6.9,-,N/A,,Clear,210,2013-05-19 07:53:00
3:53 AM,73.9,69.1,85,29.87,10.0,SW,3.5,-,N/A,,Clear,230,2013-05-19 08:53:00
4:53 AM,72.0,68.0,87,29.86,10.0,SE,3.5,-,N/A,,Clear,130,2013-05-19 09:53:00
5:53 AM,71.1,68.0,90,29.88,8.0,Calm,Calm,-,N/A,,Clear,0,2013-05-19 10:53:00
6:53 AM,71.6,68.0,88,29.92,6.0,ESE,3.5,-,N/A,,Clear,120,2013-05-19 11:53:00
7:53 AM,72.0,66.9,84,29.91,8.0,Variable,4.6,-,N/A,,Clear,0,2013-05-19 12:53:00
8:26 AM,71.6,66.2,83,29.93,8.0,South,4.6,-,N/A,,Mostly Cloudy,190,2013-05-19 13:26:00
8:53 AM,73.0,66.9,81,29.91,10.0,SW,6.9,-,N/A,,Mostly Cloudy,230,2013-05-19 13:53:00
9:53 AM,75.0,66.0,73,29.91,10.0,SSW,9.2,-,N/A,,Mostly Cloudy,200,2013-05-19 14:53:00
10:15 AM,75.2,66.2,73,29.93,10.0,SSW,6.9,-,N/A,,Scattered Clouds,210,2013-05-19 15:15:00
10:53 AM,77.0,66.0,69,29.91,10.0,SSW,10.4,18.4,N/A,,Scattered Clouds,210,2013-05-19 15:53:00
11:53 AM,81.0,66.9,62,29.90,10.0,South,10.4,16.1,N/A,,Scattered Clouds,180,2013-05-19 16:53:00
12:53 PM,82.0,68.0,62,29.86,10.0,South,9.2,-,N/A,,Partly Cloudy,180,2013-05-19 17:53:00
1:53 PM,84.2,66.2,55,29.86,10.0,South,11.5,-,N/A,,Clear,180,2013-05-19 18:53:00
2:53 PM,84.2,66.2,55,29.85,10.0,South,12.7,23.0,N/A,,Clear,170,2013-05-19 19:53:00
3:53 PM,86.0,68.0,55,29.82,10.0,SSW,9.2,20.7,N/A,,Clear,200,2013-05-19 20:53:00
4:53 PM,86.0,68.0,55,29.80,10.0,SSW,10.4,19.6,N/A,,Clear,200,2013-05-19 21:53:00
5:53 PM,84.9,68.0,57,29.78,10.0,South,12.7,-,N/A,,Clear,170,2013-05-19 22:53:00
6:53 PM,84.0,66.9,56,29.78,10.0,SSE,10.4,24.2,N/A,,Clear,160,2013-05-19 23:53:00
7:53 PM,82.0,68.0,62,29.78,10.0,SSE,6.9,-,N/A,,Clear,160,2013-05-20 00:53:00
8:53 PM,80.1,68.0,67,29.81,10.0,SSE,5.8,-,N/A,,Clear,160,2013-05-20 01:53:00
9:53 PM,80.1,68.0,67,29.82,10.0,South,6.9,-,N/A,,Clear,170,2013-05-20 02:53:00
10:53 PM,79.0,68.0,69,29.83,10.0,Variable,5.8,-,N/A,,Clear,0,2013-05-20 03:53:00
11:53 PM,78.1,66.9,68,29.83,10.0,South,11.5,23.0,N/A,,Clear,170,2013-05-20 04:53:00